Terminal Aerodrome Forecast
Issued by NWS Omaha/Valley, NE

Home | Current Version | Previous Version | Text Only | Print | Product List | Glossary On
Versions: 1 2 3 4 5 6 7 8 9 10 11 12 13 14 15 16 17 18 19 20 21 22 23 24 25 26 27 28 29 30 31 32 33 34 35 36 37 38 39
000
FTUS43 KOAX 222232 AAB
TAFOMA
TAF AMD
KOMA 222232Z 2223/2318 VRB20G25KT 1 1/2SM +TSRA OVC030CB
      TEMPO 2223/2224 17011KT P6SM NSW SCT030 BKN050
     FM230000 12010KT P6SM BKN040
     FM230600 11008KT P6SM -SHRA OVC040
      TEMPO 2307/2311 3SM TSRA BR OVC020CB
     FM231400 12008KT P6SM BKN040=

USA.gov is the U.S. government's official web portal to all federal, state and local government web resources and services.